{"data":{"norad_id":55150,"intl_designator":"2023-004L","name":"ONEWEB-0571","alt_names":[],"object_type":"PAYLOAD","status":"ACTIVE","operator":null,"country":"UK","launch_date":"2023-01-10","launch_site_code":"AFETR","launch_vehicle":null,"mission":null,"orbit_class":"UNKNOWN","rcs_meters":null,"size_class":null,"mass_kg":null,"dimensions":null,"purposes":["comms"],"wikipedia_slug":null,"has_3d_model":false,"image_url":null,"decayed_at":null,"tle_current":{"epoch":"2026-09-19T21:23:44.134656Z","epoch_age_seconds":74580,"freshness":"FRESH","line1":"1 55150U 23004L   26262.89148304  .00000051  00000+0  96093-4 0  9996","line2":"2 55150  87.9155 316.6456 0000687  87.6090 272.5121 13.18685844182183","mean_motion":13.18685844,"eccentricity":6.87e-5,"inclination_deg":87.9155,"raan_deg":316.6456,"arg_perigee_deg":87.609,"mean_anomaly_deg":272.5121,"bstar":9.6093e-5,"rev_number":18218,"period_min":109.19962525965,"perigee_km":1189.2238103127,"apogee_km":1190.2636371241,"semimajor_km":7567.8807237184,"source":"CELESTRAK","updated_at":"2026-09-20T09:00:44.752086Z"}}}